[[{"header":{"parameterUnit":"m.s-1","parameterCategory":1,"la1":30.2991,"la2":30.254,"lo1":-89.0895,"lo2":-89.0444,"dy":0.0017,"dx":0.0017,"nx":28,"ny":28,"refTime":"2025-06-03T09:00:00:Z","depth":0,"parameterNumber":2,"parameterNumberName":"U-component_of_WINDS"},"data":[0,0,0,0,0,0,0,0,0,0,0,0,0,0,0,0,0,0,0,0,0,0,0,0,0,0,0,0,0,0,0,0,0,0,0,0,0,0,0,0,0,0,0,0,0,0,0,0,0,0,0,0,0,0,0,0,0,0,-1.5809,-1.581,0,-1.5822,-1.5822,-1.5822,-1.5772,-1.577,-1.5769,-1.5768,-1.5782,-1.5783,-1.5785,0,0,0,0,0,0,0,0,0,0,0,0,0,-1.5743,-1.5744,-1.5809,-1.581,-1.581,-1.5822,-1.5822,-1.5822,-1.5772,-1.577,-1.5769,-1.5767,-1.5781,-1.5783,-1.5785,0,0,0,0,0,0,0,0,0,0,0,0,0,-1.5765,-1.5745,-1.5809,-1.5786,-1.5784,-1.5822,-1.5822,-1.5822,-1.5773,-1.577,-1.5768,-1.5766,-1.578,-1.5783,-1.5786,-1.5847,0,0,-1.5794,-1.5795,0,0,0,0,0,0,0,0,-1.5764,-1.5768,-1.5789,-1.5788,-1.5786,-1.5793,-1.5804,-1.5831,-1.5773,-1.5777,-1.5767,-1.5765,-1.5787,-1.5789,-1.5797,-1.5847,-1.5848,-1.5794,-1.5796,-1.5797,-1.5797,0,0,0,0,0,0,0,-1.5763,-1.5767,-1.5814,-1.579,-1.5788,-1.5775,-1.5776,-1.5809,-1.5795,-1.5777,-1.5773,-1.5775,-1.5786,-1.5794,-1.5797,-1.5848,-1.5794,-1.5796,-1.5798,-1.5799,-1.5949,-1.5952,0,0,0,0,0,0,-1.5764,-1.5766,-1.5814,-1.5815,-1.5769,-1.5778,-1.5779,-1.5793,-1.5794,-1.5792,-1.5777,-1.5773,-1.5791,-1.5794,-1.5797,-1.5868,-1.5797,-1.5799,-1.5801,-1.5947,-1.595,-1.5953,0,0,0,0,0,0,-1.5763,-1.5769,-1.5813,-1.5789,-1.5794,-1.5782,-1.5798,-1.5794,-1.5803,-1.5794,-1.5792,-1.5788,-1.5789,-1.5793,-1.5835,-1.5868,-1.58,-1.5803,-1.5944,-1.5948,-1.5951,-1.6012,0,0,0,0,0,0,-1.5761,-1.5769,-1.5792,-1.579,-1.5796,-1.5851,-1.58,-1.5796,-1.5807,-1.5802,-1.5804,-1.5802,-1.5788,-1.5831,-1.5837,-1.5871,-1.5805,-1.5941,-1.5946,-1.595,-1.6007,-1.6017,-1.6026,0,0,0,0,0,-1.5759,-1.5809,-1.5793,-1.5799,-1.5824,-1.5853,-1.5856,-1.5838,-1.581,-1.5833,-1.5828,-1.5802,-1.5863,-1.5836,-1.5842,-1.5877,-1.5939,-1.5945,-1.595,-1.6003,-1.6015,-1.6026,0,0,0,0,0,0,-1.5815,-1.5808,-1.5791,-1.5841,-1.5848,-1.5844,-1.5873,-1.5852,-1.5867,-1.5861,-1.5838,-1.5839,-1.5885,-1.5885,-1.5854,-1.5936,-1.5896,-1.5903,-1.5934,-1.5946,-1.5956,-1.5955,-1.5807,0,0,0,0,0,-1.5833,-1.5856,-1.5849,-1.5895,-1.5899,-1.5886,-1.5898,-1.5883,-1.5889,-1.5892,-1.5889,-1.5897,-1.5918,-1.5932,-1.5951,-1.6007,-1.6007,-1.6034,-1.6043,-1.6051,-1.6058,-1.6087,-1.6099,-1.597,-1.597,-1.597,0,0,-1.5871,-1.587,-1.5886,-1.5906,-1.591,-1.5935,-1.5888,-1.5917,-1.5936,-1.5896,-1.5935,-1.5934,-1.594,-1.5989,-1.6011,-1.5991,-1.6093,-1.6058,-1.6065,-1.6067,-1.6094,-1.6106,-1.6117,-1.5974,-1.5973,-1.5973,0,0,-1.5953,-1.5955,-1.5992,-1.5997,-1.6002,-1.5993,-1.6002,-1.6001,-1.5999,-1.6037,-1.6008,-1.603,-1.6066,-1.6072,-1.608,-1.6164,-1.6141,-1.6171,-1.6221,-1.625,-1.626,-1.6269,-1.6299,-1.631,-1.6177,-1.6177,-1.6177,0,-1.5999,-1.6036,-1.6015,-1.6045,-1.6055,-1.602,-1.6058,-1.6063,-1.6075,-1.6083,-1.606,-1.6104,-1.6106,-1.6156,-1.6177,-1.6184,-1.6194,-1.617,-1.626,-1.6269,-1.6277,-1.6305,-1.6317,-1.6181,-1.618,-1.618,-1.618,0,-1.6093,-1.6119,-1.6149,-1.616,-1.6173,-1.6208,-1.6192,-1.6208,-1.6192,-1.6185,-1.6224,-1.6225,-1.6244,-1.6254,-1.6239,-1.6302,-1.629,-1.6264,-1.6224,-1.6293,-1.6319,-1.633,-1.6186,-1.6184,-1.6183,-1.6183,0,0,-1.6211,-1.621,-1.6222,-1.6226,-1.6229,-1.6249,-1.6282,-1.6299,-1.6313,-1.6322,-1.6349,-1.6381,-1.6357,-1.6366,-1.6351,-1.6377,-1.6443,-1.6348,-1.6347,-1.6365,-1.6512,-1.6532,-1.6545,-1.6427,-1.6429,-1.6431,-1.6512,0,-1.6292,-1.6348,-1.6329,-1.6386,-1.6409,-1.6376,-1.6404,-1.641,-1.6404,-1.6423,-1.6417,-1.644,-1.6406,-1.6411,-1.6435,-1.643,-1.6472,-1.6424,-1.6453,-1.6454,-1.6453,-1.6558,-1.6579,-1.6656,-1.6522,-1.6524,-1.6525,0,-1.6394,-1.6406,-1.6465,-1.6464,-1.6473,-1.6499,-1.6513,-1.6532,-1.6537,-1.6531,-1.6541,-1.6521,-1.6553,-1.6512,-1.6557,-1.6524,-1.6535,-1.6534,-1.6537,-1.6539,-1.6494,-1.6564,-1.6679,-1.6691,-1.6541,-1.6539,-1.6538,0,-1.6474,-1.6506,-1.6545,-1.655,-1.655,-1.6569,-1.6569,-1.6572,-1.6584,-1.6596,-1.6603,-1.662,-1.6629,-1.6642,-1.6627,-1.6599,-1.6674,-1.6632,-1.667,-1.667,-1.6688,-1.6687,-1.6807,-1.6694,-1.6694,-1.6694,-1.6694,0,-1.6567,-1.6604,-1.6581,-1.6606,-1.6646,-1.6625,-1.6666,-1.6663,-1.6666,-1.6689,-1.6661,-1.6683,-1.6662,-1.6682,-1.667,-1.6709,-1.6713,-1.671,-1.6706,-1.6712,-1.6713,-1.672,-1.6714,-1.6697,-1.6696,-1.6696,-1.6695,0,-1.6664,-1.665,-1.6691,-1.6687,-1.6686,-1.6717,-1.6713,-1.6736,-1.6728,-1.6757,-1.6763,-1.6751,-1.6773,-1.6759,-1.6783,-1.6775,-1.6825,-1.6814,-1.6823,-1.682,-1.686,-1.6856,-1.6988,-1.7005,-1.6881,-1.6882,-1.6883,0,-1.6724,-1.6752,-1.6751,-1.6764,-1.6766,-1.6788,-1.6799,-1.6779,-1.6792,-1.68,-1.6821,-1.6841,-1.6856,-1.6894,-1.6888,-1.6905,-1.6895,-1.694,-1.6897,-1.6903,-1.6896,-1.6894,-1.6897,-1.6948,-1.695,-1.6951,-1.6952,0,-1.6833,-1.6824,-1.6841,-1.6856,-1.687,-1.6881,-1.6889,-1.6902,-1.6881,-1.6897,-1.692,-1.6931,-1.6954,-1.6975,-1.699,-1.6991,-1.6969,-1.6965,-1.6975,-1.6982,-1.6986,-1.6985,-1.6847,-1.6963,-1.6961,-1.6961,-1.696,-1.696,-1.6913,-1.6936,-1.6939,-1.6959,-1.6963,-1.6971,-1.6992,-1.6986,-1.7004,-1.7021,-1.7008,-1.7035,-1.7039,-1.7056,-1.706,-1.7081,-1.7063,-1.7077,-1.7081,-1.7085,-1.709,-1.6983,-1.7083,-1.7083,-1.7083,-1.7083,-1.7082,0,-1.702,-1.702,-1.7038,-1.7051,-1.7066,-1.7043,-1.7051,-1.7066,-1.709,-1.7095,-1.711,-1.7136,-1.7155,-1.715,-1.7168,-1.7185,-1.7176,-1.7191,-1.719,-1.719,-1.7105,-1.7095,-1.7198,-1.7198,-1.7198,-1.7198,-1.7198,-1.7198,-1.7078,-1.7116,-1.7108,-1.7147,-1.7146,-1.7172,-1.7179,-1.7186,-1.719,-1.722,-1.7236,-1.7232,-1.7233,-1.725,-1.7267,-1.7265,-1.7273,-1.7292,-1.7287,-1.7208,-1.7196,-1.7185,-1.7176,-1.7294,-1.7294,-1.737,-1.7371,-1.7371]},{"header":{"parameterUnit":"m.s-1","parameterCategory":1,"la1":30.2991,"la2":30.254,"lo1":-89.0895,"lo2":-89.0444,"dy":0.0017,"dx":0.0017,"nx":28,"ny":28,"refTime":"2025-06-03T09:00:00:Z","depth":0,"parameterNumber":3,"parameterNumberName":"V-component_of_WINDS"},"data":[0,0,0,0,0,0,0,0,0,0,0,0,0,0,0,0,0,0,0,0,0,0,0,0,0,0,0,0,0,0,0,0,0,0,0,0,0,0,0,0,0,0,0,0,0,0,0,0,0,0,0,0,0,0,0,0,0,0,2.5539,2.5539,0,2.551,2.5509,2.5509,2.5466,2.5466,2.5465,2.5464,2.5433,2.5433,2.5433,0,0,0,0,0,0,0,0,0,0,0,0,0,2.5557,2.5557,2.5539,2.5539,2.5539,2.551,2.5509,2.5509,2.5467,2.5466,2.5465,2.5464,2.5433,2.5433,2.5433,0,0,0,0,0,0,0,0,0,0,0,0,0,2.5541,2.5557,2.5539,2.5514,2.5511,2.551,2.5509,2.5509,2.5467,2.5466,2.5465,2.5463,2.5434,2.5433,2.5433,2.5454,0,0,2.5432,2.5432,0,0,0,0,0,0,0,0,2.5542,2.554,2.5518,2.5516,2.5513,2.5491,2.5504,2.549,2.5467,2.5484,2.5464,2.5463,2.5453,2.5451,2.5448,2.5452,2.5451,2.5432,2.5432,2.5432,2.5432,0,0,0,0,0,0,0,2.5543,2.5541,2.5528,2.5518,2.5515,2.5503,2.55,2.5502,2.5475,2.5482,2.5479,2.5476,2.5452,2.5449,2.5447,2.5451,2.5432,2.5432,2.5432,2.5432,2.5467,2.5468,0,0,0,0,0,0,2.5548,2.5543,2.5528,2.5527,2.5525,2.5504,2.55,2.5499,2.5475,2.547,2.5477,2.5474,2.5449,2.5447,2.5446,2.5466,2.5432,2.5432,2.5432,2.5466,2.5468,2.5469,0,0,0,0,0,0,2.5549,2.5547,2.553,2.5534,2.5531,2.5505,2.5504,2.5499,2.5496,2.5471,2.5466,2.5479,2.5448,2.5446,2.5452,2.5465,2.5432,2.5432,2.5465,2.5467,2.5468,2.5509,0,0,0,0,0,0,2.5549,2.5548,2.5556,2.5534,2.5531,2.5536,2.5505,2.5499,2.5495,2.5491,2.5471,2.5467,2.5447,2.5452,2.5451,2.5464,2.5432,2.5464,2.5466,2.5468,2.5506,2.5512,2.5517,0,0,0,0,0,2.555,2.5569,2.5557,2.5555,2.554,2.5537,2.5535,2.5513,2.5497,2.5504,2.5488,2.5468,2.5464,2.5453,2.5452,2.5465,2.5463,2.5465,2.5468,2.5504,2.5511,2.5516,0,0,0,0,0,0,2.5593,2.5566,2.5552,2.5564,2.5553,2.553,2.5539,2.5521,2.5514,2.5511,2.5483,2.5478,2.5487,2.5476,2.5465,2.5482,2.546,2.5462,2.5488,2.5494,2.5499,2.5501,2.5431,0,0,0,0,0,2.5604,2.5604,2.558,2.5594,2.5589,2.5565,2.5563,2.5546,2.5534,2.5529,2.5514,2.5502,2.5498,2.5496,2.5491,2.5505,2.5499,2.5513,2.5518,2.5523,2.5524,2.5529,2.5534,2.5477,2.5477,2.5477,0,0,2.5626,2.5612,2.5614,2.5602,2.5591,2.5591,2.5561,2.5563,2.5563,2.5529,2.5533,2.5521,2.5506,2.5515,2.5519,2.5507,2.5539,2.5526,2.5529,2.5529,2.5532,2.5537,2.5542,2.5478,2.5478,2.5478,0,0,2.5667,2.5657,2.5665,2.5655,2.564,2.5624,2.5626,2.5605,2.5596,2.5599,2.5574,2.5572,2.5567,2.5556,2.555,2.5586,2.5566,2.5585,2.5611,2.5615,2.562,2.5624,2.5634,2.5638,2.5587,2.5587,2.5587,0,2.5696,2.5696,2.5672,2.5675,2.567,2.564,2.5647,2.5639,2.5623,2.5619,2.5607,2.5597,2.5586,2.5591,2.5599,2.5596,2.5596,2.5586,2.5621,2.5625,2.5628,2.5637,2.5642,2.559,2.5589,2.5589,2.5589,0,2.5732,2.5732,2.5741,2.5725,2.5721,2.5727,2.5703,2.5702,2.5685,2.567,2.5672,2.5657,2.5647,2.5648,2.5632,2.565,2.5643,2.5627,2.5603,2.5636,2.5644,2.5648,2.5593,2.5592,2.5591,2.5591,0,0,2.5798,2.5769,2.5772,2.5764,2.5744,2.5744,2.5747,2.5738,2.5736,2.5726,2.5727,2.5722,2.5706,2.5699,2.5682,2.5686,2.5712,2.5668,2.5668,2.5675,2.5728,2.5739,2.5744,2.5699,2.57,2.5701,2.5729,0,2.5833,2.5837,2.5815,2.5825,2.5824,2.5795,2.5797,2.5785,2.5771,2.5767,2.5751,2.5747,2.5727,2.5723,2.5726,2.5708,2.5722,2.5706,2.5698,2.5698,2.5701,2.5749,2.5761,2.5788,2.5732,2.5733,2.5733,0,2.5874,2.5866,2.5875,2.5853,2.5852,2.5855,2.5843,2.584,2.5825,2.5815,2.5807,2.5787,2.5787,2.5766,2.5766,2.5755,2.5751,2.5742,2.5742,2.5739,2.5716,2.5745,2.5797,2.58,2.5738,2.5738,2.5737,0,2.5919,2.591,2.5914,2.5908,2.5883,2.5885,2.5875,2.5859,2.5854,2.5844,2.584,2.5831,2.5825,2.5817,2.5795,2.5782,2.5796,2.5774,2.5785,2.5786,2.5788,2.5788,2.5838,2.5789,2.5789,2.5789,2.5789,0,2.5959,2.5965,2.5933,2.5935,2.5941,2.5915,2.5921,2.5908,2.5894,2.5892,2.5867,2.5866,2.5837,2.5832,2.5815,2.5815,2.5814,2.5804,2.5798,2.5805,2.5806,2.58,2.5797,2.579,2.5789,2.5789,2.5789,0,2.6009,2.5988,2.599,2.5966,2.596,2.5965,2.5944,2.5945,2.5929,2.5927,2.5925,2.5899,2.5892,2.5869,2.5857,2.5844,2.585,2.5842,2.5855,2.5851,2.5863,2.5861,2.5909,2.5913,2.5864,2.5864,2.5865,0,2.6035,2.6039,2.6016,2.6013,2.6003,2.5999,2.5994,2.5969,2.5964,2.5946,2.5948,2.5939,2.593,2.592,2.59,2.5889,2.5879,2.5897,2.5877,2.5883,2.5877,2.5876,2.5875,2.59,2.5901,2.5902,2.5902,0,2.6083,2.6072,2.6065,2.6055,2.6049,2.6039,2.6028,2.6027,2.5999,2.5994,2.5986,2.598,2.5966,2.5956,2.5942,2.5931,2.5911,2.5908,2.591,2.5916,2.5922,2.5916,2.5864,2.5907,2.5907,2.5906,2.5906,2.5906,2.612,2.6121,2.6105,2.6098,2.6087,2.6076,2.6075,2.6059,2.6052,2.6039,2.6024,2.6018,2.6001,2.598,2.597,2.5963,2.5953,2.5956,2.5956,2.5957,2.5959,2.5925,2.5961,2.5961,2.596,2.596,2.596,0,2.6165,2.6152,2.6146,2.6131,2.6125,2.6108,2.6094,2.609,2.6084,2.6071,2.6062,2.6052,2.6042,2.6021,2.6009,2.6008,2.5998,2.6005,2.6004,2.6001,2.597,2.5969,2.6013,2.6013,2.6013,2.6013,2.6013,2.6013,2.6187,2.6188,2.6175,2.6169,2.6156,2.615,2.6143,2.6133,2.6122,2.6112,2.6103,2.609,2.6072,2.6059,2.6048,2.6042,2.6038,2.6047,2.6038,2.6009,2.6004,2.5999,2.5998,2.6047,2.6047,2.607,2.607,2.607]}]]